Regional Weather Roundup
Issued by NWS

Home | Current Version | Previous Version | Text Only | Print | Product List | Glossary On
Versions: 1 2 3 4 5 6 7 8 9 10 11 12 13 14 15 16 17 18 19 20 21 22 23 24 25 26 27 28 29 30 31 32 33 34 35 36 37 38 39 40 41 42 43 44 45 46 47 48 49 50
000
ASUS44 KFWD 020915
RWRTX
NORTH TEXAS HOURLY WEATHER ROUNDUP
NATIONAL WEATHER SERVICE FORT WORTH TX
400 AM CDT THU OCT 02 2014

NOTE: "FAIR" INDICATES FEW OR NO CLOUDS BELOW 12,000 FEET WITH NO
SIGNIFICANT WEATHER AND/OR OBSTRUCTIONS TO VISIBILITY.

TXZ118-119-021000-
DALLAS/FORT WORTH METROPLEX

CITY           SKY/WX    TMP DP  RH WIND       PRES   REMARKS
DFW AIRPORT    PTCLDY    79  70  74 S16       29.76S
DALLAS LOVE    PTCLDY    79  70  74 S13       29.77S
FTW MEACHAM    PTCLDY    80  70  71 S13       29.76S
DAL-EXECUTIVE  CLEAR     79  70  74 S9        29.77F
FTW-ALLIANCE   MOCLDY    78  69  73 S10       29.75S
FTW-NAS-JRB    MOCLDY    81  68  64 S15       29.80S
FTW-SPINKS     CLEAR     77  69  76 S10       29.79S
ARLINGTON      CLEAR     78  69  73 S12       29.77S
GRAND PRAIRIE  CLEAR     78  69  72 S10G16    29.79S
ADDISON        CLEAR     79  69  70 S13G20    29.79S
MESQUITE       CLEAR     75  70  85 S8        29.79S
LANCASTER      CLEAR     75  68  80 S5        29.80S
$$

TXZ091>094-102>105-117-120-121-131>134-021000-
NORTH CENTRAL TEXAS

CITY           SKY/WX    TMP DP  RH WIND       PRES   REMARKS
SHRMAN/DENISON PTCLDY    77  68  74 S12       29.77S
GAINESVILLE    MOCLDY    78  69  73 SE12      29.78S
BOWIE          MOCLDY    78  66  65 S10       29.75F
BRIDGEPORT     PTCLDY    80  63  55 S9        29.78S
DECATUR        PTCLDY    78  67  67 S9        29.77S
DENTON         PTCLDY    79  69  71 S9        29.76S
MCKINNEY       PTCLDY    77  70  79 S12       29.77F
GREENVILLE     CLEAR     77  70  78 S8        29.80R
ROCKWALL       CLEAR     75  72  88 S14G20    29.78S
TERRELL        CLEAR     77  72  84 S10       29.80S
WAXAHACHIE     CLEAR     76  71  85 S9        29.80S
CLEBURNE       CLEAR     75  73  94 S9        29.80S
GRANBURY       CLEAR     79  68  69 S6        29.79R
$$

TXZ083>090-098>101-113>116-127>130-139>142-154-155-021000-
WESTERN NORTH TEXAS

CITY           SKY/WX    TMP DP  RH WIND       PRES   REMARKS
WICHITA FALLS  CLEAR     80  67  64 S21G28    29.71S
WF-KICKAPOO    PTCLDY    79  65  62 S12G18    29.73S
VERNON         PTCLDY    79  64  61 S17       29.71F
ABILENE        PTCLDY    77  64  64 S12       29.79F
ABILENE-DYESS  CLEAR     76  64  65 S12       29.78S
BRECKENRIDGE     N/A     81  65  59 S15G21    29.76F
GRAHAM         PTCLDY    80  65  60 S6        29.74F
MINERAL WELLS  CLEAR     73  65  75 SE8       29.76S
STEPHENVILLE   CLEAR     72  64  77 S6        29.82F
COMANCHE       PTCLDY    75  65  70 S12       29.80F
BROWNWOOD      MOCLDY    73  66  78 S3        29.81S
COLEMAN        CLEAR     74  64  71 S8        29.81F
BRADY          CLEAR     73  68  83 S8        29.83S
$$

TXZ143>147-156>162-174-175-021000-
CENTRAL TEXAS

CITY           SKY/WX    TMP DP  RH WIND       PRES   REMARKS
WACO           CLOUDY    78  72  81 S15       29.80S
WACO-MCGREGOR  CLOUDY    79  70  73 S12G18    29.82S
HILLSBORO      MOCLDY    77  70  77 S13       29.80S
CORSICANA      PTCLDY    76  71  85 S10       29.81F
MEXIA          CLOUDY    76  73  88 S13G20    29.80F
HEARNE         CLOUDY    77  74  92 SE7       29.82F
CAMERON        MOCLDY    77  74  91 S6        29.81S
TEMPLE         CLOUDY    79  70  73 S13       29.81S
KILLEEN        CLOUDY    79  72  78 S12       29.82S
KILLEEN-SKYLRK CLOUDY    79  70  73 S10       29.82S
FORT HOOD      CLOUDY    80  73  79 S9        29.82S
GATESVILLE     MOCLDY    77  72  83 S8        29.83F
HAMILTON       CLEAR     75  69  81 S12G17    29.81F
LAMPASAS       MOCLDY    76  73  90 S6        29.82S
$$

TXZ095>097-106>112-122>126-135>138-148>153-164>167-021000-
EAST TEXAS

CITY           SKY/WX    TMP DP  RH WIND       PRES   REMARKS
PARIS          CLEAR     73  64  73 SE7       29.81S
SULPHUR SPRNGS CLEAR     77  73  86 S8        29.82S
MOUNT PLEASANT CLEAR    N/A N/A N/A S6        29.83S
GILMER         PTCLDY    75  75 100 S7        29.84F
MINEOLA        CLEAR     77  73  88 S3        29.82S
TYLER          CLOUDY    76  72  87 S12       29.82S
LONGVIEW       MOCLDY    76  72  87 S10       29.83F
MARSHALL       MOCLDY    78  75  90 S6        29.86S
ATHENS         CLOUDY    75  72  88 S10G17    29.81F
PALESTINE      CLOUDY    77  74  90 S12       29.84F
JACKSONVILLE   CLOUDY    76  74  93 S9        29.86F
HENDERSON      CLOUDY    76  74  92 S6        29.85S
NACOGDOCHES    CLOUDY    77  73  88 S8        29.85F
LUFKIN         CLOUDY    80  75  84 S7        29.85F
$$

SUPPLEMENTAL OBSERVATIONS (CENTRAL)

CITY           SKY/WX    TMP DP  RH WIND       PRES   REMARKS
LAKE TEXOMA      N/A     77  70  78 SE3         N/A
PAT MAYSE LAKE   N/A     73  70  88 E12         N/A
GREENVILLE       N/A     75  70  83 S7          N/A
ATHENS           N/A     77  72  83 S13         N/A
PALESTINE        N/A     77  73  88 S6G14       N/A
LAKE LIMESTONE   N/A     77  73  88 S6          N/A
MCGREGOR         N/A     79  72  78 SW8G20      N/A
TEMPLE           N/A     79  73  83 S12G20      N/A
$$

SUPPLEMENTAL OBSERVATIONS (WEST)

CITY           SKY/WX    TMP DP  RH WIND       PRES   REMARKS
MILLERS CREEK    N/A    N/A N/A N/A SW6G15      N/A
POSSUM KINGDOM   N/A     79  63  57 S10G22      N/A
GRANBURY         N/A     79  68  69 S8G16       N/A
COMANCHE         N/A     75  64  69 S9          N/A
HAMBY            N/A     75  63  64 S12         N/A
IVIE RESERVOIR   N/A     75  64  69 S10         N/A
COLORADO BEND    N/A     73  68  83 S8          N/A
$$

SUPPLEMENTAL OBSERVATIONS (EAST)

CITY           SKY/WX    TMP DP  RH WIND       PRES   REMARKS
CLARKSVILLE      N/A     72  68  88 SE5         N/A
TEXARKANA        N/A     73  70  88 CALM        N/A
LINDEN           N/A     73  72  94 S2          N/A
CADDO LAKE       N/A     77  73  88 S3          N/A
GILMER           N/A     75  70  83 S6          N/A
HENDERSON        N/A     75  72  88 S10         N/A
LUFKIN           N/A     79  73  83 MISG        N/A
N SABINE NF      N/A     75  72  88 MISG        N/A
S SABINE NF      N/A     75  72  88 SE1         N/A
$$

SUPPLEMENTAL OBSERVATIONS ARE A COLLECTION OF AUTOMATED INSTRUMENTS
THAT ARE MAINTAINED BY A VARIETY OF FEDERAL AND STATE AGENCIES.
CERTAIN ELEMENTS...SUCH AS HUMIDITY VALUES AND SUSTAINED WIND
SPEEDS...MAY BE APPROXIMATED.



USA.gov is the U.S. government's official web portal to all federal, state and local government web resources and services.